Weather in Udelno-Duvaney

Russia / Republic of Bashkortostan     55°10′21″N   55°50′15″E
temp.,
°C
wind,
m/s
gust,
m/s
humid.,
%
clouds,
%
prec.,
mm/h
press.,
hPa
HPBL,
m
28 february, sun
sun2823:00−10se61393100 0.9 1002441
02:00−10ese5995100 0.8 1001318
05:00−10ese4795100 1.8 1001255
08:00−9e369599 0.8 1000176
11:00−7ene239395 0.8 1001237
14:00−5n349399 0.2 1001332
17:00−6nnw469498 0.5 1003295
20:00−8n479593 0.2 1006175
1 march, mon
mon123:00−11n469586 0.3 1008119
02:00−15n349466 0.0 101064
05:00−15nnw479579 0.1 1012218
08:00−15nnw369695 0.2 1013161
11:00−14nnw459391 0.3 1016332
14:00−13nw459199 0.1 1016448
17:00−13nw4592100 0.1 1017477
20:00−17w339897 0.1 101842
2 march, tue
tue223:00−20wsw2210097 0.1 101820
02:00−22ssw23100100 0.1 101821
05:00−23s349999 0.1 101768
08:00−23sse489892 0.0 1014152
11:00−19s7119495 0.0 1012310
14:00−14s81393100 0.0 1008451
17:00−12s81394100 0.6 1006621
20:00−11s81394100 1.0 1005652
3 march, wed
wed323:00−11s81494100 1.9 1003569
02:00−10sse71394100 1.0 1000490
05:00−7sse61295100 1.9 999410
08:00−5s51096100 0.8 997426
11:00−3ssw5796100 1.6 997383
14:00−2wsw4596100 0.5 997420
17:00−4nw5894100 1.2 998549
20:00−5nw5994100 0.1 1000467
4 march, thu
thu423:00−9wnw349790 0.1 100243
02:00−9nw369696 0.1 1003114
05:00−10nw359794 0.1 1005107
08:00−14wnw349785 0.0 100660
11:00−10wnw589491 0.2 1008352
14:00−9w5892100 0.0 1008447
17:00−7wsw5990100 0.1 1009627
20:00−8ssw51292100 0.0 1008441